User: anonymous   Login
Location: La Chapelle
(48.3135°N, 1.3085°W)
Time: 02:15:16
(UTC+00:00)
Language:

Cosmos 1470 Rocket - Orbit

View from above orbital plane
View from above orbital plane
View from above satellite
View from above satellite

Ground track
Ground track

The orbit data is extracted from the following two-line orbital elements,

1 14148U 83061B   21127.21186205  .00000065  00000-0  49860-5 0  9997
2 14148  82.5218  19.4524 0020929 336.0624 139.6444 14.83377040 24214
Epoch (UTC): 07 May 2021 05:05:04
Eccentricity: 0.0020929
inclination: 82.5218°
perigee height: 604 km
apogee height: 633 km
right ascension of ascending node: 19.4524°
argument of perigee: 336.0624°
revolutions per day: 14.83377040
mean anomaly at epoch: 139.6444°
orbit number at epoch: 2421

The dashed part of the orbit path shows where the satellite is in the earth's shadow,  

DLR